OSE120 LIPO-LIPZ

Flight info

Callsign OSE120
Flight time 0h 26m
Altitude 16000
Route OSKOR L615 ADOSA L612 ALBET
Aircraft B742/H-SDFHIRWXY/L

Departure

Time 2026-05-04 13:12
Airport Brescia Gabriele d'Annunzio Airport (LIPO)

Arrival

Time 2026-05-04 13:39
Airport Venice Marco Polo Airport (LIPZ)
Time Latitude Longitude Altitude Speed Heading
2026-05-04 12:41 45.42353 10.33169 342 ft 0 kts 225°
2026-05-04 13:04 45.42362 10.33181 343 ft 2 kts 223°
2026-05-04 13:04 45.42372 10.33195 343 ft 2 kts 213°
2026-05-04 13:04 45.42386 10.33202 343 ft 2 kts 187°
2026-05-04 13:05 45.42400 10.33201 343 ft 2 kts 164°
2026-05-04 13:05 45.42413 10.33192 344 ft 2 kts 142°
2026-05-04 13:05 45.42422 10.33176 344 ft 1 kts 117°
2026-05-04 13:05 45.42426 10.33160 344 ft 0 kts 109°
2026-05-04 13:06 45.42427 10.33159 344 ft 0 kts 109°
2026-05-04 13:07 45.42426 10.33159 344 ft 0 kts 109°
2026-05-04 13:08 45.42423 10.33190 344 ft 6 kts 92°
2026-05-04 13:08 45.42434 10.33289 343 ft 13 kts 85°
2026-05-04 13:08 45.42395 10.33441 343 ft 18 kts 129°
2026-05-04 13:08 45.42281 10.33585 341 ft 25 kts 138°
2026-05-04 13:09 45.42135 10.33789 340 ft 33 kts 135°
2026-05-04 13:09 45.41978 10.34013 339 ft 23 kts 134°
2026-05-04 13:09 45.41869 10.34169 339 ft 18 kts 134°
2026-05-04 13:09 45.41843 10.34318 339 ft 13 kts 67°
2026-05-04 13:10 45.41898 10.34407 340 ft 10 kts 16°
2026-05-04 13:10 45.41962 10.34386 340 ft 0 kts 323°
2026-05-04 13:11 45.42041 10.34285 341 ft 43 kts 315°
2026-05-04 13:12 45.42390 10.33772 342 ft 100 kts 314°
2026-05-04 13:12 45.43016 10.32879 352 ft 152 kts 315°
2026-05-04 13:12 45.43833 10.31731 511 ft 176 kts 313°
2026-05-04 13:12 45.44661 10.30444 970 ft 177 kts 308°
2026-05-04 13:13 45.45360 10.29168 1097 ft 163 kts 305°
2026-05-04 13:13 45.46115 10.27725 1121 ft 197 kts 314°
2026-05-04 13:13 45.47239 10.26506 1535 ft 213 kts 322°
2026-05-04 13:13 45.48357 10.25136 2131 ft 222 kts 317°
2026-05-04 13:14 45.49469 10.23619 2790 ft 227 kts 308°
2026-05-04 13:14 45.50164 10.21643 3420 ft 231 kts 282°
2026-05-04 13:14 45.50074 10.19407 4055 ft 232 kts 245°
2026-05-04 13:14 45.49078 10.17693 4709 ft 231 kts 209°
2026-05-04 13:15 45.47564 10.17152 5369 ft 229 kts 173°
2026-05-04 13:15 45.46106 10.18014 6020 ft 230 kts 139°
2026-05-04 13:15 45.45020 10.19629 6699 ft 228 kts 132°
2026-05-04 13:15 45.44007 10.21308 7346 ft 222 kts 131°
2026-05-04 13:16 45.43010 10.22977 7644 ft 224 kts 131°
2026-05-04 13:16 45.42001 10.24671 7913 ft 226 kts 131°
2026-05-04 13:16 45.40984 10.26375 8113 ft 231 kts 131°
2026-05-04 13:16 45.39919 10.28156 8317 ft 238 kts 131°
2026-05-04 13:17 45.38831 10.29977 8569 ft 245 kts 131°
2026-05-04 13:17 45.37726 10.31823 8871 ft 250 kts 131°
2026-05-04 13:17 45.36669 10.33800 9169 ft 254 kts 116°
2026-05-04 13:17 45.36333 10.36260 9451 ft 261 kts 85°
2026-05-04 13:18 45.36575 10.38826 9814 ft 263 kts 84°
2026-05-04 13:18 45.36805 10.41380 10184 ft 264 kts 86°
2026-05-04 13:18 45.36990 10.43980 10555 ft 264 kts 87°
2026-05-04 13:18 45.37153 10.46577 10916 ft 265 kts 88°
2026-05-04 13:19 45.37307 10.49179 11267 ft 266 kts 88°
2026-05-04 13:19 45.37459 10.51813 11612 ft 267 kts 88°
2026-05-04 13:19 45.37608 10.54402 11949 ft 268 kts 88°
2026-05-04 13:19 45.37760 10.57065 12287 ft 269 kts 88°
2026-05-04 13:20 45.37911 10.59704 12610 ft 269 kts 89°
2026-05-04 13:20 45.38059 10.62324 12908 ft 271 kts 89°
2026-05-04 13:20 45.38211 10.65047 13025 ft 281 kts 89°
2026-05-04 13:20 45.38353 10.67837 13052 ft 294 kts 90°
2026-05-04 13:21 45.38501 10.70802 13062 ft 310 kts 89°
2026-05-04 13:21 45.38668 10.73943 13064 ft 327 kts 89°
2026-05-04 13:21 45.38845 10.77208 13063 ft 344 kts 89°
2026-05-04 13:21 45.39035 10.80692 13064 ft 362 kts 88°
2026-05-04 13:22 45.39233 10.84318 13246 ft 374 kts 88°
2026-05-04 13:22 45.39431 10.87915 13888 ft 367 kts 88°
2026-05-04 13:22 45.39619 10.91300 14074 ft 348 kts 88°
2026-05-04 13:22 45.39804 10.94686 13938 ft 337 kts 89°
2026-05-04 13:23 45.39980 10.97933 13753 ft 328 kts 89°
2026-05-04 13:23 45.40150 11.01127 13524 ft 320 kts 89°
2026-05-04 13:23 45.40313 11.04203 13181 ft 317 kts 89°
2026-05-04 13:23 45.40478 11.07349 12802 ft 315 kts 89°
2026-05-04 13:24 45.40638 11.10426 12416 ft 313 kts 88°
2026-05-04 13:24 45.40771 11.13487 12015 ft 310 kts 94°
2026-05-04 13:24 45.40581 11.16500 11637 ft 306 kts 101°
2026-05-04 13:25 45.39809 11.22395 10874 ft 302 kts 103°
2026-05-04 13:25 45.39400 11.25308 10489 ft 301 kts 103°
2026-05-04 13:25 45.38999 11.28172 10104 ft 300 kts 103°
2026-05-04 13:25 45.38594 11.31072 9710 ft 298 kts 103°
2026-05-04 13:26 45.38192 11.33944 9344 ft 297 kts 103°
2026-05-04 13:26 45.37790 11.36810 8967 ft 296 kts 103°
2026-05-04 13:26 45.37386 11.39692 8587 ft 295 kts 102°
2026-05-04 13:26 45.36987 11.42535 8204 ft 295 kts 103°
2026-05-04 13:27 45.36589 11.45353 7823 ft 293 kts 102°
2026-05-04 13:27 45.36190 11.48180 7455 ft 292 kts 102°
2026-05-04 13:27 45.35790 11.51012 7169 ft 287 kts 102°
2026-05-04 13:27 45.35408 11.53717 7061 ft 275 kts 102°
2026-05-04 13:28 45.35038 11.56325 7050 ft 262 kts 103°
2026-05-04 13:28 45.34680 11.58842 7051 ft 260 kts 103°
2026-05-04 13:28 45.34321 11.61352 6907 ft 266 kts 103°
2026-05-04 13:28 45.33948 11.63963 6554 ft 267 kts 103°
2026-05-04 13:29 45.33577 11.66526 6236 ft 266 kts 104°
2026-05-04 13:29 45.33182 11.69156 5958 ft 281 kts 103°
2026-05-04 13:29 45.32789 11.71829 5739 ft 276 kts 103°
2026-05-04 13:29 45.32408 11.74459 5485 ft 272 kts 103°
2026-05-04 13:30 45.32052 11.77054 5189 ft 267 kts 101°
2026-05-04 13:30 45.31752 11.79636 4814 ft 260 kts 100°
2026-05-04 13:30 45.31470 11.82142 4450 ft 254 kts 100°
2026-05-04 13:30 45.31199 11.84578 4178 ft 250 kts 100°
2026-05-04 13:31 45.30930 11.87014 4077 ft 250 kts 100°
2026-05-04 13:31 45.30662 11.89435 4050 ft 252 kts 100°
2026-05-04 13:31 45.30391 11.91902 4046 ft 256 kts 100°
2026-05-04 13:31 45.30115 11.94409 4040 ft 253 kts 100°
2026-05-04 13:32 45.29852 11.96828 4042 ft 246 kts 100°
2026-05-04 13:32 45.29606 11.99118 4037 ft 221 kts 100°
2026-05-04 13:32 45.29390 12.01163 4047 ft 207 kts 100°
2026-05-04 13:32 45.29173 12.03186 4046 ft 206 kts 100°
2026-05-04 13:33 45.28960 12.05169 4041 ft 206 kts 97°
2026-05-04 13:33 45.29250 12.07137 4041 ft 208 kts 55°
2026-05-04 13:33 45.30235 12.08569 4047 ft 202 kts 47°
2026-05-04 13:33 45.31216 12.09983 4049 ft 200 kts 46°
2026-05-04 13:34 45.32190 12.11378 4054 ft 201 kts 46°
2026-05-04 13:34 45.33160 12.12777 3989 ft 200 kts 46°
2026-05-04 13:34 45.34128 12.14158 3857 ft 188 kts 45°
2026-05-04 13:34 45.35051 12.15424 3669 ft 188 kts 44°
2026-05-04 13:35 45.36016 12.16686 3422 ft 187 kts 43°
2026-05-04 13:35 45.37911 12.19089 2915 ft 181 kts 43°
2026-05-04 13:35 45.38839 12.20266 2693 ft 179 kts 43°
2026-05-04 13:36 45.39746 12.21418 2477 ft 179 kts 43°
2026-05-04 13:36 45.40656 12.22576 2248 ft 177 kts 43°
2026-05-04 13:36 45.41566 12.23736 2063 ft 175 kts 43°
2026-05-04 13:36 45.42467 12.24886 1787 ft 171 kts 43°
2026-05-04 13:37 45.43346 12.26008 1575 ft 170 kts 43°
2026-05-04 13:37 45.44195 12.27093 1372 ft 170 kts 43°
2026-05-04 13:37 45.45036 12.28169 1160 ft 169 kts 43°
2026-05-04 13:37 45.45896 12.29269 942 ft 168 kts 43°
2026-05-04 13:38 45.46751 12.30365 729 ft 167 kts 43°
2026-05-04 13:38 45.47586 12.31434 518 ft 165 kts 43°
2026-05-04 13:38 45.48452 12.32537 313 ft 164 kts 44°
2026-05-04 13:38 45.49287 12.33610 122 ft 169 kts 43°
2026-05-04 13:39 45.50163 12.34733 15 ft 159 kts 43°
2026-05-04 13:39 45.50861 12.35634 15 ft 110 kts 41°
2026-05-04 13:39 45.51141 12.35984 14 ft 10 kts 32°
2026-05-04 13:39 45.51149 12.35992 14 ft 1 kts 32°
2026-05-04 13:40 45.51189 12.36020 14 ft 12 kts 17°
2026-05-04 13:40 45.51292 12.35954 14 ft 22 kts 299°
2026-05-04 13:40 45.51220 12.35734 14 ft 32 kts 219°
2026-05-04 13:40 45.51038 12.35525 14 ft 32 kts 221°
2026-05-04 13:41 45.50843 12.35285 14 ft 40 kts 222°
2026-05-04 13:41 45.50674 12.35053 14 ft 26 kts 223°
2026-05-04 13:41 45.50606 12.34827 14 ft 24 kts 263°
2026-05-04 13:42 45.50552 12.34384 14 ft 21 kts 224°
2026-05-04 13:42 45.50455 12.34317 14 ft 10 kts 216°
2026-05-04 13:42 45.50430 12.34263 14 ft 1 kts 250°
2026-05-04 13:42 45.50427 12.34247 14 ft 0 kts 262°